JRR118T EPKT-EKCH

Flight info

Callsign JRR118T
Flight time 1h 12m
Altitude 38000
Route LUMVE L619 XIDNA L617 KOLOB DCT ROE M743 TIDVU
Aircraft B38M/M-SDE1FGHILORVWXY/HB1

Departure

Time 2026-04-30 19:32
Airport Katowice Wojciech Korfanty International Airport (EPKT)

Arrival

Time 2026-04-30 20:44
Airport Copenhagen Kastrup Airport (EKCH)
Time Latitude Longitude Altitude Speed Heading
2026-04-30 19:07 50.47142 19.08881 1002 ft 0 kts 180°
2026-04-30 19:23 50.47171 19.08882 1002 ft 3 kts 182°
2026-04-30 19:24 50.47218 19.08881 1002 ft 3 kts 164°
2026-04-30 19:24 50.47232 19.08868 1002 ft 3 kts 101°
2026-04-30 19:24 50.47233 19.08863 1002 ft 0 kts 90°
2026-04-30 19:29 50.47232 19.08949 1003 ft 16 kts 90°
2026-04-30 19:29 50.47231 19.09178 1005 ft 24 kts 90°
2026-04-30 19:30 50.47231 19.09864 1010 ft 20 kts 90°
2026-04-30 19:30 50.47354 19.10256 1013 ft 22 kts 52°
2026-04-30 19:31 50.47538 19.10447 1014 ft 11 kts
2026-04-30 19:31 50.47595 19.10386 1014 ft 12 kts 275°
2026-04-30 19:31 50.47598 19.09453 1007 ft 106 kts 270°
2026-04-30 19:32 50.47600 19.07954 1007 ft 164 kts 269°
2026-04-30 19:32 50.47606 19.06147 1658 ft 166 kts 272°
2026-04-30 19:32 50.47602 19.04325 2425 ft 170 kts 274°
2026-04-30 19:32 50.47608 19.02455 3124 ft 172 kts 274°
2026-04-30 19:33 50.47612 19.00583 3762 ft 173 kts 275°
2026-04-30 19:33 50.47656 18.98665 4320 ft 179 kts 284°
2026-04-30 19:33 50.48172 18.96825 4648 ft 193 kts 311°
2026-04-30 19:33 50.49168 18.95278 4978 ft 213 kts 319°
2026-04-30 19:34 50.50305 18.93569 5209 ft 239 kts 318°
2026-04-30 19:34 50.51505 18.91729 6025 ft 238 kts 319°
2026-04-30 19:34 50.53911 18.88006 7518 ft 250 kts 319°
2026-04-30 19:35 50.55162 18.86055 8231 ft 255 kts 319°
2026-04-30 19:35 50.56429 18.84075 8965 ft 260 kts 319°
2026-04-30 19:35 50.57718 18.82059 9715 ft 264 kts 320°
2026-04-30 19:35 50.59028 18.80008 10461 ft 267 kts 320°
2026-04-30 19:36 50.59910 18.78627 10929 ft 269 kts 320°
2026-04-30 19:36 50.61690 18.75834 11880 ft 274 kts 321°
2026-04-30 19:36 50.63977 18.72239 13108 ft 283 kts 321°
2026-04-30 19:37 50.65379 18.70034 13858 ft 288 kts 321°
2026-04-30 19:37 50.66823 18.67759 14587 ft 293 kts 321°
2026-04-30 19:37 50.68276 18.65469 15285 ft 298 kts 322°
2026-04-30 19:37 50.69744 18.63153 15984 ft 302 kts 322°
2026-04-30 19:38 50.71239 18.60794 16707 ft 305 kts 322°
2026-04-30 19:38 50.72746 18.58413 17446 ft 308 kts 322°
2026-04-30 19:38 50.74256 18.56026 18196 ft 310 kts 323°
2026-04-30 19:38 50.75776 18.53621 18925 ft 311 kts 323°
2026-04-30 19:39 50.77319 18.51179 19610 ft 312 kts 323°
2026-04-30 19:39 50.78848 18.48754 20304 ft 311 kts 324°
2026-04-30 19:39 50.80370 18.46342 21016 ft 310 kts 324°
2026-04-30 19:39 50.81870 18.43960 21736 ft 308 kts 325°
2026-04-30 19:40 50.83389 18.41546 22488 ft 305 kts 326°
2026-04-30 19:40 50.84868 18.39192 23245 ft 302 kts 326°
2026-04-30 19:40 50.86342 18.36845 24015 ft 297 kts 327°
2026-04-30 19:40 50.87781 18.34552 24671 ft 290 kts 328°
2026-04-30 19:41 50.89182 18.32316 25337 ft 283 kts 329°
2026-04-30 19:41 50.90536 18.30152 26013 ft 274 kts 330°
2026-04-30 19:41 50.91862 18.28030 26715 ft 262 kts 331°
2026-04-30 19:41 50.93176 18.25955 26751 ft 279 kts 330°
2026-04-30 19:42 50.94581 18.23709 26747 ft 295 kts 329°
2026-04-30 19:42 50.96046 18.21353 26779 ft 310 kts 328°
2026-04-30 19:42 50.97609 18.18836 26804 ft 325 kts 328°
2026-04-30 19:42 50.99227 18.16227 26861 ft 339 kts 327°
2026-04-30 19:43 51.00908 18.13515 26957 ft 352 kts 327°
2026-04-30 19:43 51.02668 18.10676 27053 ft 365 kts 326°
2026-04-30 19:43 51.04463 18.07777 27146 ft 377 kts 326°
2026-04-30 19:44 51.08249 18.01653 27327 ft 400 kts 325°
2026-04-30 19:44 51.10236 17.98434 27436 ft 409 kts 325°
2026-04-30 19:44 51.12224 17.95207 27573 ft 416 kts 325°
2026-04-30 19:44 51.14263 17.91901 28059 ft 416 kts 325°
2026-04-30 19:45 51.16291 17.88607 28419 ft 420 kts 325°
2026-04-30 19:45 51.18333 17.85285 28814 ft 422 kts 325°
2026-04-30 19:45 51.20392 17.81934 29205 ft 425 kts 325°
2026-04-30 19:45 51.22459 17.78562 29573 ft 428 kts 325°
2026-04-30 19:46 51.24551 17.75146 29954 ft 430 kts 325°
2026-04-30 19:46 51.26644 17.71726 30325 ft 433 kts 325°
2026-04-30 19:46 51.28746 17.68283 30642 ft 435 kts 325°
2026-04-30 19:46 51.30889 17.64768 30961 ft 437 kts 325°
2026-04-30 19:47 51.32990 17.61319 31271 ft 439 kts 325°
2026-04-30 19:47 51.34420 17.58967 31482 ft 440 kts 324°
2026-04-30 19:47 51.37283 17.54255 31895 ft 443 kts 324°
2026-04-30 19:47 51.39421 17.50729 32196 ft 445 kts 324°
2026-04-30 19:48 51.41617 17.47172 32520 ft 441 kts 328°
2026-04-30 19:48 51.44026 17.44346 32950 ft 421 kts 341°
2026-04-30 19:48 51.46653 17.42547 33388 ft 409 kts 348°
2026-04-30 19:48 51.49326 17.40827 33763 ft 411 kts 347°
2026-04-30 19:49 51.51962 17.39074 34161 ft 411 kts 346°
2026-04-30 19:49 51.57218 17.35525 34858 ft 410 kts 346°
2026-04-30 19:49 51.59858 17.33731 35148 ft 410 kts 345°
2026-04-30 19:50 51.62484 17.31944 35425 ft 411 kts 345°
2026-04-30 19:50 51.65110 17.30154 35698 ft 411 kts 345°
2026-04-30 19:50 51.67731 17.28365 35977 ft 412 kts 345°
2026-04-30 19:50 51.70400 17.26541 36240 ft 412 kts 345°
2026-04-30 19:51 51.73031 17.24740 36505 ft 413 kts 344°
2026-04-30 19:51 51.75654 17.22944 36766 ft 413 kts 344°
2026-04-30 19:51 51.78312 17.21121 37022 ft 413 kts 344°
2026-04-30 19:51 51.80974 17.19292 37272 ft 414 kts 344°
2026-04-30 19:52 51.83609 17.17479 37515 ft 414 kts 343°
2026-04-30 19:52 51.86258 17.15654 37758 ft 414 kts 343°
2026-04-30 19:52 51.88913 17.13822 38001 ft 414 kts 343°
2026-04-30 19:52 51.91563 17.11992 38233 ft 414 kts 343°
2026-04-30 19:53 51.94198 17.10170 38405 ft 415 kts 343°
2026-04-30 19:53 51.96872 17.08317 38400 ft 415 kts 343°
2026-04-30 19:53 52.02148 17.04656 38397 ft 413 kts 343°
2026-04-30 19:54 52.07436 17.00977 38393 ft 413 kts 343°
2026-04-30 19:54 52.12709 16.97300 38391 ft 413 kts 343°
2026-04-30 19:55 52.17996 16.93602 38391 ft 413 kts 343°
2026-04-30 19:55 52.23280 16.89897 38395 ft 413 kts 343°
2026-04-30 19:56 52.28556 16.86188 38398 ft 413 kts 343°
2026-04-30 19:56 52.33813 16.82483 38398 ft 412 kts 343°
2026-04-30 19:57 52.39101 16.78746 38396 ft 412 kts 343°
2026-04-30 19:57 52.44351 16.75026 38397 ft 412 kts 343°
2026-04-30 19:58 52.49630 16.71277 38396 ft 412 kts 343°
2026-04-30 19:58 52.54889 16.67531 38391 ft 412 kts 343°
2026-04-30 19:59 52.60127 16.63790 38394 ft 412 kts 343°
2026-04-30 20:00 52.68032 16.58127 38400 ft 412 kts 342°
2026-04-30 20:00 52.73291 16.54347 38388 ft 413 kts 342°
2026-04-30 20:01 52.81202 16.48643 38391 ft 413 kts 342°
2026-04-30 20:01 52.86447 16.44847 38396 ft 413 kts 342°
2026-04-30 20:02 52.94359 16.39103 38391 ft 412 kts 342°
2026-04-30 20:03 53.02209 16.33382 38401 ft 412 kts 342°
2026-04-30 20:03 53.07474 16.29531 38402 ft 412 kts 342°
2026-04-30 20:04 53.12694 16.25703 38404 ft 412 kts 342°
2026-04-30 20:05 53.20575 16.19905 38404 ft 412 kts 341°
2026-04-30 20:05 53.28403 16.14123 38408 ft 412 kts 341°
2026-04-30 20:06 53.33638 16.10243 38405 ft 412 kts 341°
2026-04-30 20:06 53.38875 16.06350 38412 ft 411 kts 341°
2026-04-30 20:07 53.44112 16.02448 38413 ft 411 kts 341°
2026-04-30 20:08 53.51926 15.96606 38409 ft 411 kts 341°
2026-04-30 20:08 53.57140 15.92693 38406 ft 411 kts 341°
2026-04-30 20:09 53.62357 15.88769 38409 ft 411 kts 341°
2026-04-30 20:09 53.70211 15.82841 38409 ft 411 kts 340°
2026-04-30 20:10 53.78026 15.76917 38407 ft 411 kts 340°
2026-04-30 20:11 53.85833 15.70976 38413 ft 411 kts 340°
2026-04-30 20:11 53.91057 15.66987 38404 ft 411 kts 340°
2026-04-30 20:12 53.98854 15.61012 38411 ft 411 kts 340°
2026-04-30 20:13 54.04096 15.56981 38403 ft 411 kts 340°
2026-04-30 20:13 54.09304 15.52965 38401 ft 411 kts 339°
2026-04-30 20:14 54.14494 15.48952 38398 ft 411 kts 339°
2026-04-30 20:14 54.19702 15.44915 38397 ft 411 kts 339°
2026-04-30 20:15 54.24711 15.41020 38399 ft 412 kts 339°
2026-04-30 20:15 54.29632 15.37184 38393 ft 412 kts 339°
2026-04-30 20:16 54.34847 15.33107 38395 ft 413 kts 339°
2026-04-30 20:16 54.40085 15.29002 38389 ft 413 kts 339°
2026-04-30 20:16 54.42672 15.26970 38018 ft 410 kts 339°
2026-04-30 20:17 54.45276 15.24921 37106 ft 415 kts 338°
2026-04-30 20:17 54.47907 15.22849 36578 ft 414 kts 338°
2026-04-30 20:17 54.50510 15.20795 36365 ft 411 kts 338°
2026-04-30 20:17 54.53050 15.18790 36406 ft 394 kts 338°
2026-04-30 20:18 54.55506 15.16847 36407 ft 378 kts 339°
2026-04-30 20:18 54.57827 15.15010 36408 ft 364 kts 338°
2026-04-30 20:18 54.60118 15.13194 36396 ft 359 kts 338°
2026-04-30 20:18 54.62382 15.11397 36200 ft 364 kts 338°
2026-04-30 20:19 54.64746 15.09517 35324 ft 377 kts 338°
2026-04-30 20:19 54.66347 15.08242 34745 ft 384 kts 338°
2026-04-30 20:19 54.69584 15.05430 33456 ft 401 kts 329°
2026-04-30 20:19 54.71756 15.02301 32510 ft 414 kts 316°
2026-04-30 20:20 54.73572 14.98361 31624 ft 419 kts 313°
2026-04-30 20:20 54.75419 14.94480 30782 ft 423 kts 314°
2026-04-30 20:20 54.77306 14.90573 29942 ft 425 kts 314°
2026-04-30 20:20 54.79217 14.86633 29238 ft 423 kts 314°
2026-04-30 20:21 54.81085 14.82782 28581 ft 421 kts 314°
2026-04-30 20:21 54.82979 14.78874 27925 ft 418 kts 314°
2026-04-30 20:21 54.84840 14.75029 27287 ft 416 kts 314°
2026-04-30 20:21 54.86684 14.71213 26676 ft 414 kts 314°
2026-04-30 20:22 54.88535 14.67377 26064 ft 412 kts 314°
2026-04-30 20:22 54.90368 14.63573 25469 ft 410 kts 315°
2026-04-30 20:22 54.92190 14.59786 24887 ft 408 kts 315°
2026-04-30 20:22 54.94012 14.55992 24306 ft 406 kts 315°
2026-04-30 20:23 54.95811 14.52240 23706 ft 405 kts 315°
2026-04-30 20:23 54.97009 14.49739 23262 ft 404 kts 315°
2026-04-30 20:23 54.98801 14.45992 22651 ft 401 kts 315°
2026-04-30 20:23 55.00580 14.42264 22173 ft 396 kts 315°
2026-04-30 20:24 55.02330 14.38594 21534 ft 395 kts 315°
2026-04-30 20:24 55.04079 14.34923 20913 ft 395 kts 315°
2026-04-30 20:24 55.05829 14.31241 20298 ft 394 kts 315°
2026-04-30 20:24 55.07577 14.27560 19698 ft 393 kts 315°
2026-04-30 20:25 55.11065 14.20197 18499 ft 392 kts 314°
2026-04-30 20:25 55.12780 14.16567 17846 ft 391 kts 314°
2026-04-30 20:26 55.16245 14.09219 16558 ft 390 kts 314°
2026-04-30 20:26 55.19691 14.01887 15314 ft 389 kts 314°
2026-04-30 20:26 55.21412 13.98218 14708 ft 389 kts 314°
2026-04-30 20:27 55.24821 13.90931 13449 ft 388 kts 313°
2026-04-30 20:27 55.28238 13.83606 12173 ft 386 kts 313°
2026-04-30 20:28 55.31617 13.76346 10956 ft 382 kts 312°
2026-04-30 20:28 55.34031 13.68324 10620 ft 365 kts 284°
2026-04-30 20:29 55.34625 13.59825 10506 ft 336 kts 280°
2026-04-30 20:30 55.35416 13.48321 10288 ft 299 kts 280°
2026-04-30 20:30 55.36110 13.38128 10162 ft 276 kts 281°
2026-04-30 20:31 55.36812 13.27878 9334 ft 283 kts 280°
2026-04-30 20:32 55.37501 13.17649 8557 ft 281 kts 280°
2026-04-30 20:32 55.37957 13.10820 8043 ft 280 kts 279°
2026-04-30 20:33 55.38181 13.07429 7790 ft 279 kts 279°
2026-04-30 20:33 55.38630 13.00633 7287 ft 284 kts 279°
2026-04-30 20:33 55.38859 12.97139 7017 ft 286 kts 279°
2026-04-30 20:34 55.39307 12.90246 6468 ft 285 kts 279°
2026-04-30 20:34 55.39751 12.83335 5895 ft 282 kts 278°
2026-04-30 20:35 55.39968 12.79946 5614 ft 280 kts 278°
2026-04-30 20:35 55.40185 12.76531 5335 ft 278 kts 278°
2026-04-30 20:35 55.40608 12.69851 4761 ft 274 kts 278°
2026-04-30 20:36 55.40819 12.66502 4487 ft 272 kts 277°
2026-04-30 20:36 55.41024 12.63222 4209 ft 270 kts 277°
2026-04-30 20:36 55.40440 12.56893 3646 ft 267 kts 240°
2026-04-30 20:37 55.39464 12.54179 3483 ft 260 kts 238°
2026-04-30 20:37 55.38485 12.51550 3356 ft 252 kts 238°
2026-04-30 20:37 55.37543 12.49033 3225 ft 243 kts 240°
2026-04-30 20:37 55.36740 12.46455 3117 ft 235 kts 244°
2026-04-30 20:38 55.36010 12.43922 3094 ft 234 kts 246°
2026-04-30 20:38 55.35660 12.41185 3044 ft 228 kts 277°
2026-04-30 20:38 55.36178 12.38613 3011 ft 223 kts 309°
2026-04-30 20:39 55.38863 12.36783 2960 ft 219 kts
2026-04-30 20:39 55.40356 12.37417 2956 ft 221 kts 14°
2026-04-30 20:39 55.41842 12.38189 2930 ft 221 kts 18°
2026-04-30 20:40 55.44740 12.39928 2887 ft 218 kts 18°
2026-04-30 20:40 55.46139 12.40764 2870 ft 204 kts 20°
2026-04-30 20:40 55.47274 12.42050 2854 ft 189 kts 39°
2026-04-30 20:41 55.49166 12.44920 2541 ft 171 kts 37°
2026-04-30 20:41 55.50054 12.46254 2376 ft 167 kts 37°
2026-04-30 20:41 55.50940 12.47606 2178 ft 167 kts 37°
2026-04-30 20:41 55.51815 12.48949 1960 ft 167 kts 37°
2026-04-30 20:42 55.52677 12.50275 1758 ft 166 kts 37°
2026-04-30 20:42 55.53544 12.51610 1523 ft 165 kts 37°
2026-04-30 20:42 55.55203 12.54167 1116 ft 154 kts 37°
2026-04-30 20:43 55.56008 12.55406 908 ft 153 kts 38°
2026-04-30 20:43 55.56789 12.56610 697 ft 154 kts 38°
2026-04-30 20:43 55.57595 12.57856 526 ft 155 kts 39°
2026-04-30 20:44 55.59170 12.60269 107 ft 145 kts 40°
2026-04-30 20:44 55.59889 12.61380 26 ft 124 kts 41°
2026-04-30 20:44 55.60397 12.62164 27 ft 13 kts 39°
2026-04-30 20:45 55.60690 12.62366 27 ft 18 kts 11°
2026-04-30 20:45 55.60838 12.62471 26 ft 29 kts 39°
2026-04-30 20:45 55.60962 12.62661 26 ft 25 kts 41°
2026-04-30 20:46 55.61489 12.63477 26 ft 34 kts 41°
2026-04-30 20:46 55.61629 12.63694 26 ft 31 kts 41°
2026-04-30 20:47 55.61896 12.64089 26 ft 21 kts 28°
2026-04-30 20:47 55.62039 12.64210 27 ft 24 kts 25°
2026-04-30 20:48 55.62344 12.64426 27 ft 22 kts 14°
2026-04-30 20:48 55.62473 12.64479 26 ft 16 kts 358°
2026-04-30 20:48 55.62550 12.64341 26 ft 18 kts 304°
2026-04-30 20:48 55.62617 12.64156 27 ft 16 kts 303°
2026-04-30 20:49 55.62653 12.64058 30 ft 8 kts 307°
2026-04-30 20:49 55.62678 12.64046 26 ft 3 kts 22°
2026-04-30 20:49 55.62707 12.64076 28 ft 4 kts 33°
2026-04-30 20:50 55.62719 12.64090 29 ft 0 kts 33°